Terminal Aerodrome Forecast
Issued by NWS Omaha/Valley, NE

Home | Current Version | Previous Version | Graphics & Text | Print | Product List | Glossary On
Versions: 1 2 3 4 5 6 7 8 9 10 11 12 13 14 15
000
FTUS43 KOAX 041727
TAFOFK
TAF
KOFK 041727Z 0418/0518 26008KT P6SM FEW200
     FM050900 19010KT P6SM BKN200=

USA.gov is the U.S. government's official web portal to all federal, state and local government web resources and services.